STARLINK-5537, 55384

Orbit data source: Space-Track

STARLINK-5537, 55384 is a payload satellite owned by SpaceX/Seattle (US) in LEO that was launched on Thu, 26 Jan 2023 UTC via an FALCON 9 launch vehicle from the Air Force Eastern Test Range (AFETR). Payload-class satellites include a variety of spacecraft equipped with specific instruments for various scientific and technological missions. These include communications satellites like Starlink; space stations such as the ISS; scientific satellites like the Hubble; Earth observation satellites from companies like Planet Labs, Umbra, and HawkEye 360; GPS; miniature CubeSats for education and research; and military/defense satellites.

Loading next visibility...
Identifier
55384, 2023-013BF
Orbit
LEO
Country
Flag of USUS
Related business
Manufacturer
SpaceX/Seattle
Mission
Operational Commercial Communications
Bus & Motor
STARLINK, Unknown motor
Mass
305 kg wet, ~290 kg dry
Launch date (UTC)
2023-01-26 (3 years ago)
Launch vehicle
FALCON 9
Launch site
Air Force Eastern Test Range (AFETR)
Object type
Payload
Rocket body
Debris
Shape & HBR
Box + 1 Pan, 10.1 m
Radar Cross Section
13.562 m², Large (>1 m²)

Expand to show TLE details & history
Last TLE update: 19 hours ago

TLE from 19 hours ago
0 STARLINK-5537
1 55384U 23013BF  25349.19788314  .00000797  00000-0  74062-4 0  9994
2 55384  43.0046  52.0835 0001454 265.8057  94.2619 15.02527633158856
Epoch: 2025-12-15T04:44Z
TLE epoch observation values (Epoch: 2025-12-15T04:44:57.103Z)
Latitude
-0.00002°
Longitude
-103.25435°
Altitude
558.959 km
Speed
7.584 km/s
True Right ascension
03h 28m 20s
True Declination
0° 00' 00"
Sunlit
Object was in full shadow at epoch
Visualization orbit readout
Latitude
Unknown
Longitude
Unknown
Altitude
Unknown
Speed
Unknown
Apparent Right ascension
Unknown
Apparent Declination
Unknown
Sunlit
N/A
Visualization observer readout
Local Sidereal Time
22:46:58
Azimuth
Unknown
Elevation
Unknown
Doppler factor
Unknown
Orbital elements
Apogee altitude
562.037 km
Perigee altitude
560.02 km
Semi-major axis
6,939.165 km
Eccentricity
0.00015
Inclination
43.0046°
RAAN
52.0835°
Arg. of periapsis
265.8057°
True anomaly
94.27852°
Mean anomaly
94.2619°
Eccentric anomaly
94.27021°
Mean motion
3.75476 °/min
Orbital period
95.88 mins
BSTAR
0.000074062
Loading maneuver chart data...
Computing Atmospheric mass density...
Loading historical data...
Loading historical data...
Loading historical data...
Loading historical data...
Loading historical data...
Loading historical data...
Loading historical data...

Documentation

Showing up to 5 results
|